FW0304 Weather Reports


Display with metric or nautical units.
time (UTC)temp
F
wind
direction
speed
MPH
gust
MPH
rain 1hr
in
rain 24hr
in
rain mn
in
humidity
%
barometer
mb
20260905074527 76 329 0.0 0.0 0.00 0.00 0.00 90 1013.9
20260905073028 76 329 0.0 0.0 0.00 0.00 0.00 90 1014.0
20260905071507 76 329 0.0 0.0 0.00 0.00 0.00 90 1013.8
20260905070016 76 329 0.0 0.0 0.00 0.00 0.00 89 1013.9
20260905064524 77 329 0.0 0.0 0.00 0.00 0.00 89 1014.0
20260905063028 77 329 0.0 0.0 0.00 0.00 0.00 88 1014.0
20260905061508 77 329 0.0 0.0 0.00 0.00 0.00 88 1013.8
20260905060014 77 329 0.0 0.0 0.00 0.00 0.00 87 1013.9
20260905054525 78 329 0.0 0.0 0.00 0.00 0.00 87 1014.0
20260905053030 78 329 0.0 0.0 0.00 0.00 0.00 86 1014.0
20260905051535 78 329 0.0 2.0 0.00 0.00 0.00 85 1013.9
20260905050011 78 329 0.0 0.0 0.00 0.00 0.00 84 1014.0
20260905044518 78 329 0.0 0.0 0.00 0.00 0.00 85 1013.9
20260905043026 77 329 0.0 0.0 0.00 0.00 0.00 86 1014.2
20260905041531 78 329 0.0 0.0 0.00 0.00 0.00 85 1014.3
20260905040032 78 329 0.0 0.0 0.00 0.00 0.00 84 1014.1
20260905034515 79 329 0.0 0.0 0.00 0.00 0.00 82 1014.0
20260905033023 79 329 0.0 2.0 0.00 0.00 0.00 81 1014.0
20260905031537 79 332 0.0 2.0 0.00 0.00 0.00 82 1014.1
20260905030031 79 337 0.0 0.0 0.00 0.00 0.00 81 1014.0
20260905024555 79 337 0.0 0.0 0.00 0.00 0.00 80 1014.1
20260905023021 80 337 0.0 0.0 0.00 0.00 0.00 79 1014.0
20260905021525 80 337 0.0 0.0 0.00 0.00 0.00 78 1014.0
20260905020033 80 337 0.0 0.0 0.00 0.00 0.00 78 1014.0
20260905014535 81 337 0.0 0.0 0.00 0.00 0.00 76 1013.9
20260905013022 81 337 0.0 0.0 0.00 0.00 0.00 75 1013.8
20260905011523 82 337 0.0 0.0 0.00 0.00 0.00 73 1013.9
20260905010027 83 337 0.0 0.0 0.00 0.00 0.00 72 1013.7
20260905004532 83 337 0.0 1.0 0.00 0.00 0.00 69 1013.8
20260905003035 84 309 0.0 0.0 0.00 0.00 0.00 67 1013.8
20260905001521 86 309 0.0 0.0 0.00 0.00 0.00 63 1013.6
20260905000030 86 309 0.0 0.0 0.00 0.00 0.00 62 1013.5
20260904234534 87 309 0.0 0.0 0.00 0.00 0.00 61 1013.5
20260904233032 88 295 0.0 4.0 0.00 0.00 0.00 57 1013.6
20260904231534 92 299 1.0 11.0 0.00 0.00 0.00 52 1013.7
20260904230027 96 135 0.0 2.0 0.00 0.00 0.00 48 1013.2
20260904224530 96 108 0.0 2.0 0.00 0.00 0.00 48 1013.1
20260904223036 96 346 0.0 1.0 0.00 0.00 0.00 48 1013.1
20260904221533 96 161 0.0 2.0 0.00 0.00 0.00 47 1013.0
20260904220034 96 332 0.0 3.0 0.00 0.00 0.00 48 1012.8
20260904214528 97 150 0.0 2.0 0.00 0.00 0.00 48 1012.7
20260904213009 97 159 1.0 4.0 0.00 0.00 0.00 47 1012.7
20260904211514 96 82 0.0 2.0 0.00 0.00 0.00 48 1012.7
20260904210024 96 182 0.0 3.0 0.00 0.00 0.00 48 1012.9
20260904204527 97 327 0.0 3.0 0.00 0.00 0.00 47 1013.0
20260904203008 97 161 1.0 4.0 0.00 0.00 0.00 48 1013.2
20260904201510 97 164 0.0 3.0 0.00 0.00 0.00 47 1013.5
20260904200034 96 115 0.0 6.0 0.00 0.00 0.00 47 1013.7
20260904194522 96 173 0.0 5.0 0.00 0.00 0.00 47 1014.0
20260904193037 96 173 0.0 3.0 0.00 0.00 0.00 48 1014.5
20260904191513 96 330 0.0 2.0 0.00 0.00 0.00 48 1014.9
20260904190017 96 32 1.0 4.0 0.00 0.00 0.00 50 1015.1
20260904184521 95 184 0.0 4.0 0.00 0.00 0.00 51 1015.3
20260904183026 97 258 1.0 5.0 0.00 0.00 0.00 49 1015.4
20260904181509 96 150 1.0 4.0 0.00 0.00 0.00 48 1015.6
20260904180014 96 134 0.0 3.0 0.00 0.00 0.00 50 1015.7
20260904174521 96 138 1.0 3.0 0.00 0.00 0.00 50 1016.0
20260904173029 96 105 1.0 5.0 0.00 0.00 0.00 50 1016.0
20260904171552 96 121 0.0 6.0 0.00 0.00 0.00 52 1016.3
20260904170010 95 181 0.0 3.0 0.00 0.00 0.00 52 1016.6
20260904164518 95 71 1.0 4.0 0.00 0.00 0.00 53 1016.7
20260904163043 94 154 1.0 3.0 0.00 0.00 0.00 54 1016.8
20260904161527 94 323 0.0 2.0 0.00 0.00 0.00 57 1016.8
20260904160031 93 198 0.0 3.0 0.00 0.00 0.00 58 1016.8
20260904154518 94 339 0.0 3.0 0.00 0.00 0.00 56 1016.9
20260904153025 92 167 1.0 2.0 0.00 0.00 0.00 62 1016.8
20260904151537 90 184 1.0 2.0 0.00 0.00 0.00 64 1016.8
20260904150008 89 28 1.0 3.0 0.00 0.00 0.00 66 1016.8
20260904144514 88 108 0.0 2.0 0.00 0.00 0.00 71 1016.7
20260904143018 87 12 0.0 2.0 0.00 0.00 0.00 73 1016.6
20260904141528 85 334 0.0 2.0 0.00 0.00 0.00 75 1016.7
20260904140006 84 128 0.0 2.0 0.00 0.00 0.00 78 1016.7
20260904134514 82 55 0.0 2.0 0.00 0.00 0.00 80 1016.6
20260904133022 80 144 1.0 2.0 0.00 0.00 0.00 84 1016.6
20260904131526 79 45 0.0 2.0 0.00 0.00 0.00 88 1016.5
20260904130028 78 19 0.0 1.0 0.00 0.00 0.00 88 1016.4
20260904124511 77 88 0.0 2.0 0.00 0.00 0.00 91 1016.3
20260904123012 76 69 0.0 0.0 0.00 0.00 0.00 93 1016.2
20260904121522 75 69 0.0 0.0 0.00 0.00 0.00 93 1016.1
20260904120041 74 69 0.0 0.0 0.00 0.00 0.00 1015.9
20260904114533 74 69 0.0 0.0 0.00 0.00 0.00 94 1015.7
20260904113013 73 69 0.0 0.0 0.00 0.00 0.00 93 1015.6
20260904111522 73 69 0.0 0.0 0.00 0.00 0.00 93 1015.7
20260904110026 74 69 0.0 0.0 0.00 0.00 0.00 93 1015.7
20260904104530 74 69 0.0 0.0 0.00 0.00 0.00 93 1015.6
20260904103037 74 69 0.0 0.0 0.00 0.00 0.00 93 1015.5
20260904101519 74 69 0.0 0.0 0.00 0.00 0.00 93 1015.5
20260904100023 74 69 0.0 0.0 0.00 0.00 0.00 93 1015.5
20260904094531 74 69 0.0 0.0 0.00 0.00 0.00 93 1015.3
20260904093029 74 69 0.0 0.0 0.00 0.00 0.00 93 1015.3
20260904091519 74 69 0.0 0.0 0.00 0.00 0.00 93 1015.3
20260904090025 74 69 0.0 0.0 0.00 0.00 0.00 93 1015.1
20260904084529 74 69 0.0 0.0 0.00 0.00 0.00 93 1015.0
20260904083031 74 69 0.0 0.0 0.00 0.00 0.00 93 1015.1
20260904081534 74 69 0.0 0.0 0.00 0.00 0.00 93 1015.0
20260904080016 74 69 0.0 0.0 0.00 0.00 0.00 92 1015.1